Tracking 27380 objects as of 6-Jun-2023
HD Live streaming from Space Station
objects crossing your sky now

SL-14 DEB

Track SL-14 DEB now!
10-day predictions


NORAD ID: 29065
Int'l Code: 1978-100AX
Perigee: 1,679.9 km
Apogee: 1,707.2 km
Inclination: 82.5 °
Period: 120.1 minutes
Semi major axis: 8064 km
RCS: 0.015 m2 (small)
Launch date: October 26, 1978
Source: Commonwealth of Independent States (former USSR) (CIS)
Launch site: PLESETSK MISSILE AND SPACE COMPLEX (PKMTR)

Note: This is SATELLITE DEBRIS
Your satellite tracking list
Your tracking list is empty




NASA's NSSDC Master Catalog

Two Line Element Set (TLE):
1 29065U 78100AX  23156.63632039  .00000154  00000-0  18358-2 0  9994
2 29065  82.5386 276.4706 0016911 297.2578 122.9425 11.98754473446453
Source of the keplerian elements: AFSPC